Starlink 31631

operational
NORAD ID: 59459 Int'l Des: 2024-068 Owner: SPXS Country: US Constellation: starlink
LEOCIRCULAR

Starlink 31631について

説明を読み込み中...

リアルタイム位置

3D地球を読み込み中...

次回通過

高度履歴

Altitude vs Time

uPlot chart will show altitude changes over time

軌道要素

1 59459U 24068E 25352.85607423 .00000993 00000-0 45598-4 0 9990
2 59459 43.0002 127.2751 0001104 265.7314 94.3412 15.27584823 96207
Epoch: Dec 18, 2025 • Age: 20 hours

現在のステータス

高度 495.4 km
速度 7.62 km/s
衛星直下点 -42.73°S, 46.27°E
打ち上げ日 Apr 10, 2024
運用期間 1.6 years
タイプ internet

技術仕様

分類 Payload
質量 730.00 kg
乾燥質量 700.00 kg
総質量 730.00 kg
長さ 0.30 m
直径 4.10 m
スパン 29.00 m
形状 Box + pan
製造者 SPXS
バスタイプ Starlink V2M
フェーズステータス In Orbit
所有者/国 SPXS/US

大規模コンステレーション

Loading constellations...